Location: Richmond
(37.5536°N, 77.4606°W)
Time: 17:00:01
(UTC-05:00)

ISS - Visible Passes

Search period start: 05 February 2016 00:00
Search period end: 15 February 2016 00:00
Orbit: 399 x 408 km, 51.6° (Epoch: 05 February)

Date Brightness Start Highest point End Pass type
(mag) Time Alt. Az. Time Alt. Az. Time Alt. Az.
05 Feb -1.7 18:12:47 10° W 18:15:41 29° NNW 18:18:35 10° NNE visible
06 Feb -0.6 18:58:53 10° NW 19:00:07 12° NNW 19:01:20 10° N visible
07 Feb -0.9 18:05:07 10° WNW 18:07:17 16° NNW 18:09:27 10° NNE visible
13 Feb -0.7 19:18:43 10° N 19:19:11 11° N 19:19:11 11° N visible
14 Feb -0.1 20:01:24 10° NNW 20:01:25 10° NNW 20:01:25 10° NNW visible
